Regional Weather Roundup
Issued by NWS Binghamton, NY

Home | Current Version | Previous Version | Text Only | Print | Product List | Glossary On
Versions: 1 2 3 4 5 6 7 8 9 10 11 12 13 14 15 16 17 18 19 20 21 22 23 24 25 26 27 28 29 30 31 32 33 34 35 36 37 38 39 40 41 42 43 44 45 46 47 48 49 50
212
ASUS41 KBGM 202210
RWRBGM

REGIONAL WEATHER ROUNDUP
NATIONAL WEATHER SERVICE BINGHAMTON NY
500 PM EST FRI JAN 20 2017

Note: "fair" indicates few or no clouds below 12,000 feet with no
significant weather and/or obstructions to visibility.

* = Station(s) that does not report precipitation, such as rain,
snow, etc, also no thunder or fog.

NYZ009-015>018-022>025-036-037-044>046-055>057-062-202300
...Central New York...

CITY           SKY/WX    TMP DP  RH WIND       PRES   REMARKS
Binghamton     CLOUDY    36  34  92 S9        29.78S WCI  29
Cortland       DRIZZLE   39  37  93 S6        29.79R WCI  35
Dansville      LGT RAIN  44  40  85 E5        29.73S
Elmira         LGT RAIN  41  38  89 CALM      29.77S
Seneca Falls   LGT RAIN  43  37  81 S7        29.78S
Ithaca         CLOUDY    39  36  89 S12       29.78S WCI  32
Hamilton       CLOUDY    37  34  87 S8        29.80R WCI  31
Monticello     CLOUDY    36  34  93 SE6       29.87S WCI  31
Norwich        CLOUDY    37  36  93 S6        29.82S WCI  33
Oneonta        PTCLDY    36  36 100 CALM      29.80S
Penn Yan       CLOUDY    42  35  76 S8        29.76R
Rome           CLOUDY    37  33  85 E8        29.85R WCI  31
Sidney         CLOUDY    37  37 100 W3        29.82S
Syracuse       CLOUDY    42  36  79 E6        29.79R
$$

PAZ038>040-043-044-047-048-072-202300
...Northeast Pennsylvania...

CITY           SKY/WX    TMP DP  RH WIND       PRES   REMARKS
Hazleton       CLOUDY    36  34  93 SE6       29.85S FOG     WCI  31
Scranton       LGT RAIN  38  38 100 CALM      29.83S FOG
$$
&&
KEY
WCI = Wind Chill Index
VSB = Visibility
HX  = Heat Index
$$




USA.gov is the U.S. government's official web portal to all federal, state and local government web resources and services.